This is the latest recevied weather packets stored in our database for station/object VE2XOX. If no packets are shown the sender has not sent any weather packets the latest 10 day(s).
| Time | Temp. | Humidity | Pressure | Rain* | Wind** | Luminosity | Snow |
|---|---|---|---|---|---|---|---|
| 1777481725 | 20° C | 36% | 1010.1 hPa | 0 mm | - | - | - |
| 1777481422 | 20° C | 36% | 1010.2 hPa | 0 mm | - | - | - |
| 1777481128 | 20° C | 36% | 1010.3 hPa | 0 mm | - | - | - |
| 1777480818 | 20° C | 36% | 1010.3 hPa | 0 mm | - | - | - |
| 1777480524 | 20° C | 35% | 1010.4 hPa | 0 mm | - | - | - |
| 1777480232 | 20° C | 36% | 1010.5 hPa | 0 mm | - | - | - |
| 1777479919 | 19.44° C | 37% | 1010.7 hPa | 0 mm | - | - | - |
| 1777479622 | 18.89° C | 38% | 1010.7 hPa | 0 mm | - | - | - |
| 1777479331 | 18.33° C | 39% | 1010.7 hPa | 0 mm | - | - | - |
| 1777479012 | 18.33° C | 37% | 1011 hPa | 0 mm | - | - | - |
| 1777478716 | 18.33° C | 39% | 1011 hPa | 0 mm | - | - | - |
| 1777478427 | 17.78° C | 38% | 1011 hPa | 0 mm | - | - | - |
| 1777478130 | 17.78° C | 38% | 1011.1 hPa | 0 mm | - | - | - |
| 1777477815 | 17.78° C | 38% | 1011.2 hPa | 0 mm | - | - | - |
| 1777477527 | 18.33° C | 37% | 1011.3 hPa | 0 mm | - | - | - |
| 1777477229 | 18.33° C | 39% | 1011.2 hPa | 0 mm | - | - | - |
| 1777476917 | 17.78° C | 40% | 1011.3 hPa | 0 mm | - | - | - |
| 1777476626 | 17.22° C | 39% | 1011.3 hPa | 0 mm | - | - | - |
| 1777476330 | 17.22° C | 40% | 1011.4 hPa | 0 mm | - | - | - |
| 1777476037 | 16.67° C | 40% | 1011.4 hPa | 0 mm | - | - | - |
| 1777475719 | 16.11° C | 40% | 1011.6 hPa | 0 mm | - | - | - |
| 1777475424 | 16.11° C | 41% | 1011.7 hPa | 0 mm | - | - | - |
| 1777475113 | 15.56° C | 41% | 1011.6 hPa | 0 mm | - | - | - |
| 1777474824 | 16.11° C | 40% | 1011.6 hPa | 0 mm | - | - | - |
| 1777474527 | 16.11° C | 39% | 1011.7 hPa | 0 mm | - | - | - |
* Rain latest hour (hover to see other rain measurements)
** Current wind speed in m/s (hover to see current wind gust speed)